This demonstration page uses our WeatherBlox Daily Observations layout. Learn more.

38.89511, -77.03637

Hourly Observations for January 13, 2015

Temp ( °F °C ) Dew Point ( °F °C ) Humidity (%) Winds ( mph kmh ) Pressure ( in mb ) Visibility ( mi km ) Precip ( " mm )
12:52 am 00:52 Cloudy 41 5 35 1.7 79 79 NNW 8 13 30.29 1026 9 14.48406 0 0.0254
1:34 am 01:34 Cloudy 41 5 36 2 81 81 NNW 9 15 30.3 1026 10 16.0934 0 0
1:52 am 01:52 Cloudy 41 5 34 1.1 76 76 N 9 15 30.31 1027 10 16.0934 0 0
1:59 am 01:59 Cloudy 41 5 34 1 76 76 N 12 19 30.33 1027 10 16.0934 0 0
2:06 am 02:06 Cloudy 41 5 34 1 76 76 N 12 19 30.33 1027 10 16.0934 0 0
2:46 am 02:46 Cloudy 39 4 28 -2 65 65 N 18 30 30.36 1028 10 16.0934 0 0
2:52 am 02:52 Cloudy 40 4.4 29 -1.7 65 65 N 13 20 30.35 1028 10 16.0934 0 0
3:52 am 03:52 Cloudy 39 3.9 29 -1.7 67 67 NNE 10 17 30.39 1029 10 16.0934 0 0
4:52 am 04:52 Cloudy 38 3.3 27 -2.8 65 65 NNE 15 24 30.4 1030 10 16.0934 0 0
5:52 am 05:52 Cloudy 38 3.3 27 -2.8 65 65 N 16 26 30.42 1030 10 16.0934 0 0
6:52 am 06:52 Cloudy 36 2.2 22 -5.6 57 57 NNE 17 28 30.47 1032 10 16.0934 0 0
7:52 am 07:52 Mostly Cloudy 36 2.2 20 -6.7 52 52 N 20 31 30.5 1033 10 16.0934 0 0
8:52 am 08:52 Mostly Cloudy 35 1.7 17 -8.3 48 48 NNE 16 26 30.55 1035 10 16.0934 0 0
9:52 am 09:52 Mostly Cloudy 34 1.1 16 -8.9 48 48 NNE 16 26 30.57 1035 10 16.0934 0 0
10:52 am 10:52 Partly Cloudy 34 1.1 12 -11.1 40 40 N 16 26 30.58 1036 10 16.0934 0 0
11:52 am 11:52 Mostly Cloudy 34 1.1 11 -11.7 38 38 NNE 9 15 30.55 1035 10 16.0934 0 0
12:52 pm 12:52 Cloudy 35 1.7 12 -11.1 38 38 N 13 20 30.53 1034 10 16.0934 0 0
1:52 pm 13:52 Cloudy 35 1.7 13 -10.6 40 40 N 8 13 30.53 1034 10 16.0934 0 0
2:52 pm 14:52 Cloudy 35 1.7 11 -11.7 37 37 N 13 20 30.53 1034 10 16.0934 0 0
3:52 pm 15:52 Mostly Cloudy 34 1.1 12 -11.1 40 40 NNE 10 17 30.54 1034 10 16.0934 0 0
4:52 pm 16:52 Mostly Cloudy 33 0.6 12 -11.1 42 42 NE 7 11 30.56 1035 10 16.0934 0 0
5:52 pm 17:52 Mostly Cloudy 32 0 12 -11.1 43 43 NNE 13 20 30.57 1035 10 16.0934 0 0
6:52 pm 18:52 Mostly Cloudy 31 -0.6 12 -11.1 45 45 NE 13 20 30.58 1036 10 16.0934 0 0
7:52 pm 19:52 Mostly Cloudy 30 -1.1 11 -11.7 45 45 NNE 10 17 30.57 1035 10 16.0934 0 0
8:52 pm 20:52 Mostly Cloudy 30 -1.1 10 -12.2 43 43 NNE 9 15 30.57 1035 10 16.0934 0 0
9:52 pm 21:52 Mostly Cloudy 29 -1.7 10 -12.2 45 45 NE 9 15 30.55 1034 10 16.0934 0 0
10:52 pm 22:52 Mostly Cloudy 29 -1.7 11 -11.7 47 47 NE 10 17 30.54 1034 10 16.0934 0 0
11:52 pm 23:52 Mostly Cloudy 29 -1.7 11 -11.7 47 47 NE 7 11 30.52 1034 10 16.0934 0 0

Powered by AerisWeather